Location: Obersdorf
(47.4079°N, 10.2781°E)
Time: 11:35:46
(UTC+01:00)

XW-2C - Pass Details

Date: 07 December 2021
Orbit: 503 x 523 km, 97.5° (Epoch: 15 January)

Event Time Altitude Azimuth Distance (km) Brightness Sun altitude
Rises 07:07:01 0° 4° (N) 2,670 ? -7.5°
Reaches altitude 10° 07:09:16 10° 354° (N) 1,776 ? -7.2°
Maximum altitude 07:12:41 32° 291° (WNW) 925 ? -6.6°
Drops below altitude 10° 07:16:05 10° 228° (SW) 1,761 ? -6.1°
Sets 07:18:19 0° 218° (SW) 2,643 ? -5.8°
